Regional Weather Roundup
Issued by NWS

Home | Current Version | Previous Version | Text Only | Print | Product List | Glossary On
Versions: 1 2 3 4 5 6 7 8 9 10 11 12 13 14 15 16 17 18 19 20 21 22 23 24 25 26 27 28 29 30 31 32 33 34 35 36 37 38 39 40 41 42 43 44 45 46 47 48 49 50
000
ASUS45 KBOU 262207
RWRCO

WEATHER ROUNDUP FOR COLORADO
NATIONAL WEATHER SERVICE DENVER/BOULDER CO
300 PM MST SUN FEB 26 2017

NOTE: "FAIR" INDICATES FEW OR NO CLOUDS BELOW 12000 FEET WITH NO
SIGNIFICANT WEATHER AND/OR OBSTRUCTIONS TO VISIBILITY.

COZ001>005-013-030-031-262300-
...NORTHWEST COLORADO...

CITY           SKY/WX    TMP DP  RH WIND       PRES   REMARKS
CRAIG          FAIR      30   2  30 W13       29.81F WCI  20
HAYDEN         FAIR      28   1  31 W13       29.81F WCI  18
MEEKER         FAIR      32   5  32 SW15      29.81F WCI  22
MOUNT WERNER   NOT AVBL
STEAMBOAT SPGS FAIR      24   0  34 CALM      29.81F
WALDEN         NOT AVBL
$$

COZ006>008-011-262300-
...WEST CENTRAL VALLEYS...

CITY           SKY/WX    TMP DP  RH WIND       PRES   REMARKS
GRAND JUNCTION FAIR      41   8  25 CALM      29.85F
MONTROSE       CLOUDY    38   7  27 NW8       29.87F
EAGLE          SUNNY     34   1  25 W15G24    29.83F WCI  24
RIFLE          FAIR      39   3  22 W15G22    29.84F
DELTA          FAIR      44   6  21 CALM      29.86F
NUCLA          FAIR      37   9  30 SW3       29.89F
$$

COZ017>023-064>068-262300-
...SOUTHWEST COLORADO...

CITY           SKY/WX    TMP DP  RH WIND       PRES   REMARKS
DURANGO        FAIR      36   6  28 W13       29.85F
CORTEZ         FAIR      39  10  30 W10       29.87F
PAGOSA SPRINGS CLOUDY    35   5  28 SW16G22   29.83F WCI  24
TELLURIDE      PTSUNNY   24   7  48 W7        29.84F WCI  16
WOLF CREEK PAS CLOUDY     9   5  85 SW16G26   29.80S WCI  -9
$$

COZ009-010-012-014-032>034-037-058>063-262300-
...CENTRAL COLORADO...

CITY           SKY/WX    TMP DP  RH WIND       PRES   REMARKS
ASPEN          FAIR      27  -3  27 SW6       29.80S WCI  20
BUENA VISTA    FAIR      31  -4  22 W18G29    29.76S WCI  19
COPPER MTN     FAIR      12  -6  44 MISG      29.70
BERTHOUD PASS  FAIR       1  -8  66 W24G35    29.63F WCI -22
COTTONWOOD PAS FAIR      25  -9  22 W16G40    29.73R WCI  12
GUNNISON       FAIR      22   9  57 CALM      29.85F
KREMMLING      FAIR      34   0  23 SW18G24   29.78F WCI  23
LEADVILLE      FAIR      17  -5  37 N9G20     29.74S WCI   6
MONARCH PASS     N/A      5   1  85 W52G61    29.79F WCI -24
SALIDA         FAIR      34  -4  20 W28G36    29.86R WCI  20
SUNLIGHT       NOT AVBL
WILKERSON PASS FAIR      21 -13  21 W9G18     29.71R WCI  11
$$

COZ069>075-262300-
...SAN LUIS VALLEY/SANGRE DE CRISTO MOUNTAINS...

CITY           SKY/WX    TMP DP  RH WIND       PRES   REMARKS
ALAMOSA        CLOUDY    34   4  28 NW8G17    29.78S WCI  27
LA VETA PASS   PTSUNNY   23   3  42 SW15G30   29.74R WCI  10
SAGUACHE       FAIR      34   0  23 NW21G31   29.80R WCI  22
$$

COZ035-036-038>040-262300-
...NORTHERN COLORADO FRONT RANGE...

CITY           SKY/WX    TMP DP  RH WIND       PRES   REMARKS
DENVER INTL AP FAIR      42  -4  14 W5        29.74S
DMNS CITY PARK   N/A     41  -6  13 E8G14     29.73S
AURORA         MOSUNNY   41  -6  13 N6        29.74S
FRONT RANGE AP SUNNY     43  -6  13 NW6       29.75S
ERIE MUNI ARPT FAIR      42  -5  13 NW9       29.74F
BOULDER MUN AP FAIR      41   1  19 N5        29.73F
CENTENNIAL     FAIR      40  -6  14 NW6       29.73S
BROOMFIELD     MOSUNNY   41   0  17 N12       29.73F
FORT COLLINS   FAIR      38   4  24 VRB5      29.75F
LONGMONT       FAIR      43   4  20 CALM      29.76S
$$

COZ041-046-047-076>085-087-088-262300-
...PIKES PEAK/PALMER DIVIDE AND SOUTHERN FOOTHILLS...

CITY           SKY/WX    TMP DP  RH WIND       PRES   REMARKS
COLO. SPRINGS  FAIR      44 -11   9 NE7       29.72S
A. F. ACADEMY  FAIR      41 -15   9 W13G20    29.69S
SCHRIEVER AFB  FAIR      40 -12  11 W5        29.73S
ELLICOTT       NOT AVBL
FALCON         FAIR      40 -11  11 S10       29.73R
FORT CARSON    FAIR      45 -17   7 SW16      29.71S
LIMON          FAIR      40   0  18 VRB3      29.76S
MONUMENT HILL  FAIR      36   0  21 S3        29.73R
TRINIDAD       PTSUNNY   45  -2  14 NW17G25   29.74R
$$

COZ042>045-048>051-090-091-262300-
...NORTHEAST COLORADO...

CITY           SKY/WX    TMP DP  RH WIND       PRES   REMARKS
GREELEY ARPT   FAIR      42   4  20 SE8       29.77F
AKRON          FAIR      41   6  23 SW12G21   29.78F
BURLINGTON     FAIR      45   8  22 SE12G20   29.81F
WRAY           NOT AVBL
STERLING       FAIR      37  18  44 E5        29.81S
HOLYOKE        FAIR      43  14  31 SW8       29.85S
FORT MORGAN    FAIR      40   4  22 CALM      29.79S
$$

COZ086-089-092>099-262300-
...SOUTHEAST COLORADO...

CITY           SKY/WX    TMP DP  RH WIND       PRES   REMARKS
PUEBLO         FAIR      51  -8   8 NW14G28   29.73S
LA JUNTA       FAIR      51   5  15 N7        29.77S
LAMAR          FAIR      50   6  16 SE10G20   29.78F
SPRINGFIELD      N/A     48   4  16 SE15      29.76F
$$



USA.gov is the U.S. government's official web portal to all federal, state and local government web resources and services.